| time (UTC) | temp F | wind direction | speed knots | gust knots | rain 1hr in | rain 24hr in | rain mn in | humidity % | barometer mb |
| 20260505095516 | 61 | 113 | 0.9 | 3.5 | 0.00 | 0.00 | 0.00 | 57 | 1016.1 |
| 20260505094536 | 61 | 158 | 1.7 | 4.3 | 0.00 | 0.00 | 0.00 | 57 | 1015.9 |
| 20260505093516 | 61 | 180 | 1.7 | 4.3 | 0.00 | 0.00 | 0.00 | 57 | 1015.8 |
| 20260505092515 | 61 | 180 | 0.9 | 3.5 | 0.00 | 0.00 | 0.00 | 57 | 1015.8 |
| 20260505091516 | 62 | 0.0 | 1.7 | 0.00 | 0.00 | 0.00 | 57 | 1015.8 | |
| 20260505090536 | 62 | 0.0 | 3.5 | 0.00 | 0.00 | 0.00 | 56 | 1015.8 | |
| 20260505085536 | 62 | 113 | 0.9 | 2.6 | 0.00 | 0.00 | 0.00 | 56 | 1015.8 |
| 20260505084516 | 62 | 180 | 0.9 | 3.5 | 0.00 | 0.00 | 0.00 | 56 | 1015.9 |
| 20260505083556 | 62 | 0.0 | 1.7 | 0.00 | 0.00 | 0.00 | 56 | 1015.9 | |
| 20260505082516 | 62 | 0.0 | 1.7 | 0.00 | 0.00 | 0.00 | 56 | 1016.0 | |
| 20260505081516 | 62 | 203 | 0.9 | 7.8 | 0.00 | 0.00 | 0.00 | 55 | 1016.0 |
| 20260505080516 | 63 | 203 | 0.9 | 1.7 | 0.00 | 0.00 | 0.00 | 55 | 1015.8 |
| 20260505075536 | 63 | 90 | 0.9 | 3.5 | 0.00 | 0.00 | 0.00 | 55 | 1015.8 |
| 20260505074515 | 63 | 225 | 0.9 | 3.5 | 0.00 | 0.00 | 0.00 | 55 | 1015.7 |
| 20260505073525 | 63 | 0.0 | 2.6 | 0.00 | 0.00 | 0.00 | 54 | 1015.6 | |
| 20260505072515 | 63 | 203 | 0.9 | 4.3 | 0.00 | 0.00 | 0.00 | 54 | 1015.7 |
| 20260505071516 | 63 | 0.0 | 1.7 | 0.00 | 0.00 | 0.00 | 54 | 1015.5 | |
| 20260505070515 | 63 | 203 | 0.9 | 1.7 | 0.00 | 0.00 | 0.00 | 54 | 1015.3 |
| 20260505065515 | 64 | 45 | 0.9 | 6.1 | 0.00 | 0.00 | 0.00 | 54 | 1015.3 |
| 20260505064515 | 64 | 23 | 0.9 | 3.5 | 0.00 | 0.00 | 0.00 | 54 | 1015.3 |
| 20260505063515 | 64 | 90 | 0.9 | 2.6 | 0.00 | 0.00 | 0.00 | 54 | 1015.4 |
| 20260505062515 | 64 | 113 | 0.9 | 3.5 | 0.00 | 0.00 | 0.00 | 54 | 1015.4 |
| 20260505061515 | 64 | 68 | 0.9 | 4.3 | 0.00 | 0.00 | 0.00 | 54 | 1015.4 |
| 20260505060515 | 64 | 0.0 | 2.6 | 0.00 | 0.00 | 0.00 | 54 | 1015.4 | |
| 20260505055537 | 65 | 225 | 0.9 | 4.3 | 0.00 | 0.00 | 0.00 | 54 | 1015.4 |
| 20260505054517 | 65 | 203 | 0.9 | 5.2 | 0.00 | 0.00 | 0.00 | 53 | 1015.5 |
| 20260505053517 | 65 | 158 | 1.7 | 7.8 | 0.00 | 0.00 | 0.00 | 53 | 1015.4 |
| 20260505052517 | 65 | 135 | 0.9 | 5.2 | 0.00 | 0.00 | 0.00 | 53 | 1015.5 |
| 20260505051517 | 65 | 135 | 0.9 | 2.6 | 0.00 | 0.00 | 0.00 | 53 | 1015.5 |
| 20260505050517 | 65 | 113 | 0.9 | 3.5 | 0.00 | 0.00 | 0.00 | 52 | 1015.5 |
| 20260505041517 | 66 | 68 | 0.9 | 3.5 | 0.00 | 0.00 | 0.00 | 52 | 1015.6 |
| 20260505040537 | 66 | 0 | 0.9 | 3.5 | 0.00 | 0.00 | 0.00 | 52 | 1015.5 |
| 20260505035536 | 66 | 45 | 0.9 | 4.3 | 0.00 | 0.00 | 0.00 | 52 | 1015.5 |
| 20260505034516 | 66 | 315 | 0.9 | 3.5 | 0.00 | 0.00 | 0.00 | 52 | 1015.5 |
| 20260505033515 | 67 | 315 | 0.9 | 2.6 | 0.00 | 0.00 | 0.00 | 52 | 1015.5 |
| 20260505032516 | 67 | 45 | 1.7 | 4.3 | 0.00 | 0.00 | 0.00 | 52 | 1015.5 |
| 20260505031516 | 67 | 270 | 0.9 | 3.5 | 0.00 | 0.00 | 0.00 | 53 | 1015.4 |
| 20260505030515 | 67 | 293 | 1.7 | 5.2 | 0.00 | 0.00 | 0.00 | 53 | 1015.4 |
| 20260505025515 | 67 | 270 | 1.7 | 7.0 | 0.00 | 0.00 | 0.00 | 53 | 1015.3 |
| 20260505024516 | 67 | 338 | 2.6 | 8.7 | 0.00 | 0.00 | 0.00 | 53 | 1015.2 |
| 20260505023516 | 67 | 0 | 0.9 | 8.7 | 0.00 | 0.00 | 0.00 | 53 | 1015.2 |
| 20260505022515 | 68 | 225 | 1.7 | 7.8 | 0.00 | 0.00 | 0.00 | 53 | 1015.0 |
| 20260505021515 | 68 | 158 | 1.7 | 6.1 | 0.00 | 0.00 | 0.00 | 53 | 1014.9 |
| 20260505020515 | 68 | 68 | 1.7 | 7.8 | 0.00 | 0.00 | 0.00 | 52 | 1015.0 |
| 20260505015515 | 68 | 293 | 0.9 | 5.2 | 0.00 | 0.00 | 0.00 | 52 | 1014.8 |
| 20260505014515 | 68 | 315 | 0.9 | 3.5 | 0.00 | 0.00 | 0.00 | 50 | 1014.8 |
| 20260505013556 | 68 | 203 | 0.9 | 1.7 | 0.00 | 0.00 | 0.00 | 46 | 1014.8 |
| 20260505012535 | 68 | 0.0 | 0.9 | 0.00 | 0.00 | 0.00 | 43 | 1014.8 | |
| 20260505011537 | 68 | 0.0 | 0.9 | 0.00 | 0.00 | 0.00 | 42 | 1014.7 | |
| 20260505010537 | 69 | 0.0 | 0.9 | 0.00 | 0.00 | 0.00 | 40 | 1014.7 | |
| 20260505005517 | 69 | 0.0 | 0.9 | 0.00 | 0.00 | 0.00 | 39 | 1014.6 | |
| 20260505004517 | 70 | 0.0 | 0.9 | 0.00 | 0.00 | 0.00 | 39 | 1014.5 | |
| 20260505003517 | 70 | 0.0 | 2.6 | 0.00 | 0.00 | 0.00 | 37 | 1014.1 | |
| 20260505002517 | 70 | 0.0 | 0.9 | 0.00 | 0.00 | 0.00 | 37 | 1014.0 | |
| 20260505001517 | 70 | 0.0 | 0.9 | 0.00 | 0.00 | 0.00 | 36 | 1013.9 | |
| 20260505000517 | 71 | 0.0 | 0.0 | 0.00 | 0.00 | 0.00 | 36 | 1013.9 | |
| 20260504235555 | 71 | 0.0 | 1.7 | 0.00 | 0.00 | 0.00 | 36 | 1013.9 | |
| 20260504234537 | 72 | 0.0 | 1.7 | 0.00 | 0.00 | 0.00 | 35 | 1013.7 | |
| 20260504233517 | 73 | 0.0 | 0.9 | 0.00 | 0.00 | 0.00 | 34 | 1013.5 | |
| 20260504232517 | 73 | 0.0 | 3.5 | 0.00 | 0.00 | 0.00 | 35 | 1013.4 | |
| 20260504231517 | 74 | 0.0 | 1.7 | 0.00 | 0.00 | 0.00 | 33 | 1013.2 | |
| 20260504230517 | 74 | 315 | 0.9 | 2.6 | 0.00 | 0.00 | 0.00 | 31 | 1013.3 |
| 20260504225517 | 74 | 180 | 0.9 | 2.6 | 0.00 | 0.00 | 0.00 | 30 | 1013.4 |
| 20260504224517 | 74 | 338 | 0.9 | 2.6 | 0.00 | 0.00 | 0.00 | 30 | 1013.4 |
| 20260504223517 | 75 | 180 | 0.9 | 5.2 | 0.00 | 0.00 | 0.00 | 30 | 1013.4 |
| 20260504222517 | 75 | 135 | 0.9 | 2.6 | 0.00 | 0.00 | 0.00 | 30 | 1013.4 |
| 20260504221517 | 75 | 0.0 | 0.9 | 0.00 | 0.00 | 0.00 | 31 | 1013.5 | |
| 20260504220537 | 75 | 225 | 0.9 | 2.6 | 0.00 | 0.00 | 0.00 | 29 | 1013.5 |
| 20260504215517 | 76 | 180 | 0.9 | 2.6 | 0.00 | 0.00 | 0.00 | 31 | 1013.5 |
| 20260504214517 | 76 | 203 | 0.9 | 3.5 | 0.00 | 0.00 | 0.00 | 30 | 1013.6 |
| 20260504213517 | 76 | 203 | 0.9 | 5.2 | 0.00 | 0.00 | 0.00 | 29 | 1013.6 |
| 20260504212517 | 76 | 68 | 0.9 | 3.5 | 0.00 | 0.00 | 0.00 | 29 | 1013.6 |
| 20260504211517 | 76 | 225 | 0.9 | 2.6 | 0.00 | 0.00 | 0.00 | 28 | 1013.7 |
| 20260504210517 | 77 | 225 | 0.9 | 2.6 | 0.00 | 0.00 | 0.00 | 28 | 1013.7 |
| 20260504205517 | 77 | 180 | 0.9 | 7.0 | 0.00 | 0.00 | 0.00 | 26 | 1013.6 |
| 20260504204517 | 77 | 180 | 0.9 | 4.3 | 0.00 | 0.00 | 0.00 | 28 | 1013.6 |
| 20260504203537 | 77 | 0 | 1.7 | 4.3 | 0.00 | 0.00 | 0.00 | 28 | 1013.7 |
| 20260504202516 | 77 | 225 | 1.7 | 7.8 | 0.00 | 0.00 | 0.00 | 28 | 1013.9 |
| 20260504201517 | 77 | 45 | 1.7 | 6.1 | 0.00 | 0.00 | 0.00 | 26 | 1013.9 |
| 20260504200517 | 78 | 113 | 0.9 | 2.6 | 0.00 | 0.00 | 0.00 | 28 | 1013.9 |
| 20260504195517 | 78 | 135 | 0.9 | 1.7 | 0.00 | 0.00 | 0.00 | 29 | 1014.0 |
| 20260504194517 | 77 | 203 | 0.9 | 3.5 | 0.00 | 0.00 | 0.00 | 28 | 1014.3 |
| 20260504193517 | 77 | 203 | 1.7 | 6.1 | 0.00 | 0.00 | 0.00 | 29 | 1014.5 |
| 20260504192537 | 77 | 158 | 0.9 | 7.0 | 0.00 | 0.00 | 0.00 | 28 | 1014.5 |
| 20260504191537 | 77 | 23 | 1.7 | 4.3 | 0.00 | 0.00 | 0.00 | 23 | 1014.7 |
| 20260504190517 | 77 | 203 | 0.9 | 4.3 | 0.00 | 0.00 | 0.00 | 27 | 1014.9 |
| 20260504185516 | 76 | 248 | 0.9 | 6.1 | 0.00 | 0.00 | 0.00 | 31 | 1015.0 |
| 20260504184517 | 76 | 225 | 1.7 | 6.1 | 0.00 | 0.00 | 0.00 | 29 | 1015.2 |
| 20260504183517 | 75 | 158 | 0.9 | 5.2 | 0.00 | 0.00 | 0.00 | 32 | 1015.2 |
| 20260504182517 | 75 | 113 | 0.9 | 2.6 | 0.00 | 0.00 | 0.00 | 31 | 1015.5 |
| 20260504181517 | 74 | 135 | 0.9 | 3.5 | 0.00 | 0.00 | 0.00 | 32 | 1015.6 |
| 20260504180516 | 74 | 180 | 1.7 | 7.8 | 0.00 | 0.00 | 0.00 | 30 | 1015.6 |
| 20260504175516 | 75 | 135 | 0.9 | 2.6 | 0.00 | 0.00 | 0.00 | 29 | 1015.7 |
| 20260504174537 | 75 | 113 | 2.6 | 4.3 | 0.00 | 0.00 | 0.00 | 27 | 1015.7 |
| 20260504173517 | 74 | 45 | 0.9 | 2.6 | 0.00 | 0.00 | 0.00 | 31 | 1015.8 |
| 20260504172516 | 75 | 180 | 1.7 | 8.7 | 0.00 | 0.00 | 0.00 | 29 | 1016.0 |
| 20260504171516 | 75 | 180 | 1.7 | 5.2 | 0.00 | 0.00 | 0.00 | 27 | 1016.1 |
| 20260504170517 | 74 | 45 | 1.7 | 3.5 | 0.00 | 0.00 | 0.00 | 29 | 1016.2 |
| 20260504150536 | 70 | 315 | 0.9 | 1.7 | 0.00 | 0.00 | 0.00 | 41 | 1017.1 |
| 20260504140516 | 65 | 158 | 0.9 | 3.5 | 0.00 | 0.00 | 0.00 | 45 | 1017.5 |
| 20260504130516 | 63 | 90 | 0.9 | 3.5 | 0.00 | 0.00 | 0.00 | 50 | 1017.8 |
| 20260504110516 | 54 | 0.0 | 0.0 | 0.00 | 0.00 | 0.00 | 61 | 1018.1 | |
| 20260504100516 | 55 | 0.0 | 1.7 | 0.00 | 0.00 | 0.00 | 57 | 1018.1 |